CW5439 Weather Reports


Display with metric or nautical units.
time (UTC)temp
F
wind
direction
speed
MPH
gust
MPH
rain 1hr
in
rain 24hr
in
rain mn
in
humidity
%
barometer
mb
20260503195706 46 121 2.0 4.0 0.00 0.13 0.13 88 1012.8
20260503195205 46 111 2.0 4.0 0.00 0.13 0.13 88 1012.7
20260503194705 46 103 2.0 5.0 0.00 0.13 0.13 88 1012.6
20260503194209 46 123 2.0 5.0 0.00 0.13 0.13 88 1012.6
20260503193705 46 132 3.0 5.0 0.00 0.13 0.13 87 1012.6
20260503193205 46 132 3.0 7.0 0.00 0.13 0.13 87 1012.6
20260503192705 46 108 3.0 7.0 0.00 0.13 0.13 87 1012.5
20260503192206 46 111 3.0 6.0 0.00 0.13 0.13 87 1012.5
20260503191206 46 129 3.0 6.0 0.00 0.13 0.13 86 1012.5
20260503190706 46 135 2.0 4.0 0.00 0.13 0.13 86 1012.5
20260503185705 47 111 2.0 5.0 0.00 0.13 0.13 85 1012.5
20260503185206 47 98 2.0 7.0 0.00 0.13 0.13 85 1012.6
20260503183705 47 122 3.0 8.0 0.00 0.13 0.13 85 1012.4
20260503183207 47 121 4.0 8.0 0.00 0.13 0.13 85 1012.3
20260503182706 47 119 4.0 7.0 0.00 0.13 0.13 85 1012.2
20260503182206 48 117 4.0 8.0 0.00 0.13 0.13 85 1012.3
20260503181706 48 98 4.0 8.0 0.00 0.13 0.13 84 1012.4
20260503181205 48 123 4.0 8.0 0.00 0.13 0.13 84 1012.4
20260503180705 48 110 4.0 8.0 0.00 0.13 0.13 84 1012.4
20260503180205 48 103 4.0 8.0 0.00 0.13 0.13 85 1012.5
20260503175205 48 110 4.0 9.0 0.00 0.13 0.13 85 1012.4
20260503174705 47 124 4.0 9.0 0.00 0.13 0.13 85 1012.3
20260503174205 47 132 4.0 9.0 0.00 0.13 0.13 85 1012.2
20260503173705 47 101 4.0 9.0 0.00 0.13 0.13 84 1012.2
20260503173205 47 105 4.0 9.0 0.00 0.13 0.13 84 1012.3
20260503172705 47 136 5.0 8.0 0.00 0.13 0.13 84 1012.3
20260503172206 48 138 5.0 8.0 0.00 0.13 0.13 84 1012.3
20260503171705 48 136 5.0 7.0 0.00 0.13 0.13 84 1012.4
20260503171206 48 154 4.0 7.0 0.00 0.13 0.13 84 1012.4
20260503170205 48 141 3.0 7.0 0.00 0.13 0.13 84 1012.5
20260503150205 48 59 5.0 12.0 0.00 0.13 0.13 83 1012.5
20260503140205 47 75 6.0 11.0 0.00 0.13 0.13 85 1012.9
20260503131205 46 36 6.0 12.0 0.00 0.13 0.13 88 1013.1
20260503130704 46 37 6.0 12.0 0.00 0.13 0.13 88 1013.1
20260503130205 46 69 6.0 12.0 0.00 0.13 0.13 88 1013.0
20260503120205 46 34 6.0 13.0 0.00 0.13 0.13 91 1013.2
20260503110705 46 46 7.0 14.0 0.00 0.13 0.13 93 1013.2
20260503110206 46 65 8.0 14.0 0.00 0.13 0.13 93 1013.2
20260503090205 45 53 7.0 12.0 0.00 0.13 0.13 95 1013.2
20260503081205 45 41 6.0 12.0 0.00 0.13 0.13 95 1013.2
20260503080705 45 16 6.0 15.0 0.00 0.13 0.13 95 1013.2
20260503080205 45 82 8.0 15.0 0.00 0.13 0.13 95 1013.1
20260503070206 45 44 9.0 17.0 0.00 0.13 0.13 95 1012.8
20260503060205 45 40 9.0 16.0 0.01 0.13 0.13 95 1012.6
20260503054706 46 62 9.0 16.0 0.01 0.13 0.13 95 1012.6
20260503054205 46 65 8.0 16.0 0.01 0.13 0.13 95 1012.7
20260503053704 46 59 8.0 15.0 0.01 0.13 0.13 95 1012.6
20260503053206 46 67 9.0 15.0 0.02 0.13 0.13 95 1012.6
20260503052705 46 42 9.0 14.0 0.02 0.13 0.13 95 1012.6
20260503052205 46 50 8.0 14.0 0.02 0.13 0.13 95 1012.6
20260503051205 46 37 8.0 14.0 0.02 0.13 0.13 95 1012.5
20260503050206 46 61 7.0 18.0 0.02 0.13 0.13 95 1012.6
20260503045705 46 79 8.0 12.0 0.02 0.13 0.13 95 1012.5
20260503045206 46 48 7.0 12.0 0.02 0.13 0.13 95 1012.5
20260503044705 46 71 6.0 13.0 0.02 0.13 0.13 95 1012.6
20260503043705 46 59 7.0 13.0 0.02 0.13 0.12 95 1012.5
20260503043205 46 64 7.0 15.0 0.02 0.12 0.12 95 1012.5
20260503042704 46 61 7.0 15.0 0.02 0.12 0.12 95 1012.5
20260503042205 46 45 8.0 15.0 0.02 0.12 0.12 95 1012.5
20260503041706 46 68 8.0 13.0 0.03 0.12 0.12 95 1012.5
20260503040705 46 53 6.0 13.0 0.03 0.11 0.11 95 1012.5
20260503040205 46 80 7.0 14.0 0.03 0.11 0.11 95 1012.6
20260503035705 46 62 8.0 14.0 0.03 0.10 0.10 95 1012.6
20260503035205 46 58 7.0 12.0 0.03 0.10 0.10 95 1012.6
20260503034705 46 80 7.0 12.0 0.04 0.10 0.10 95 1012.6
20260503034206 46 42 6.0 14.0 0.04 0.10 0.10 95 1012.7
20260503033206 46 54 7.0 12.0 0.05 0.09 0.09 95 1012.7
20260503032705 47 68 7.0 12.0 0.05 0.09 0.09 95 1012.6
20260503031704 47 60 7.0 13.0 0.05 0.09 0.09 95 1012.7
20260503030722 47 64 8.0 14.0 0.04 0.08 0.08 95 1012.6
20260503025705 47 28 6.0 10.0 0.04 0.07 0.07 95 1012.6
20260503025234 47 42 5.0 10.0 0.04 0.07 0.07 94 1012.6
20260503024205 47 70 5.0 10.0 0.02 0.06 0.06 94 1012.7
20260503023205 47 42 5.0 10.0 0.02 0.05 0.05 95 1012.6
20260503022205 47 84 6.0 11.0 0.03 0.05 0.05 95 1012.7
20260503021705 47 41 6.0 13.0 0.02 0.04 0.04 95 1012.7
20260503021205 47 52 7.0 13.0 0.02 0.04 0.04 94 1012.7
20260503020705 47 74 6.0 13.0 0.02 0.04 0.04 94 1012.7
20260503020205 47 59 6.0 11.0 0.02 0.03 0.03 94 1012.7
20260503015206 47 73 5.0 11.0 0.02 0.03 0.03 94 1012.7
20260503014705 47 22 5.0 12.0 0.02 0.03 0.03 94 1012.6
20260503014205 47 44 7.0 12.0 0.02 0.03 0.03 94 1012.7
20260503013705 47 38 7.0 13.0 0.02 0.03 0.03 94 1012.7
20260503013205 47 44 7.0 14.0 0.02 0.02 0.02 94 1012.7
20260503012705 47 49 8.0 14.0 0.02 0.02 0.02 94 1012.7
20260503011205 47 63 7.0 15.0 0.02 0.02 0.02 94 1012.9
20260503010707 47 57 8.0 15.0 0.02 0.02 0.02 94 1012.9
20260503010205 47 54 9.0 18.0 0.02 0.02 0.02 94 1012.9
20260503005205 47 61 8.0 18.0 0.01 0.01 0.01 94 1012.9
20260503004705 47 74 7.0 14.0 0.01 0.01 0.01 94 1012.9
20260503004205 47 32 7.0 14.0 0.01 0.01 0.01 94 1013.0
20260503003705 47 37 7.0 13.0 0.01 0.01 0.01 93 1012.9
20260503003204 47 78 6.0 12.0 0.00 0.00 0.00 93 1013.0
20260503002706 47 80 7.0 12.0 0.00 0.00 0.00 93 1013.0
20260503002206 47 53 7.0 13.0 0.00 0.00 0.00 93 1013.0
20260503001705 47 92 7.0 13.0 0.00 0.00 0.00 93 1013.0
20260503001206 47 76 8.0 13.0 0.00 0.00 0.00 93 1013.0
20260503000233 48 70 8.0 17.0 0.00 0.00 0.00 93 1013.1
20260502235705 48 61 8.0 17.0 0.00 0.00 0.00 93 1013.0
20260502235206 48 91 9.0 14.0 0.00 0.00 0.00 92 1013.1
20260502234705 48 69 9.0 14.0 0.00 0.00 0.00 92 1013.1
20260502234205 48 55 9.0 14.0 0.00 0.00 0.00 92 1013.1
20260502233705 48 80 8.0 14.0 0.00 0.00 0.00 92 1013.2
20260502232705 48 64 9.0 17.0 0.00 0.00 0.00 92 1013.1
20260502232206 48 65 10.0 17.0 0.00 0.00 0.00 92 1013.2
20260502231205 48 61 9.0 15.0 0.00 0.00 0.00 91 1013.2
20260502230205 48 101 8.0 16.0 0.00 0.00 0.00 91 1013.2
20260502225704 48 67 8.0 16.0 0.00 0.00 0.00 91 1013.2
20260502225205 48 45 10.0 16.0 0.00 0.00 0.00 91 1013.1
20260502224705 48 72 10.0 16.0 0.00 0.00 0.00 91 1013.1
20260502224205 48 51 9.0 16.0 0.00 0.00 0.00 91 1013.2
20260502223705 48 66 9.0 16.0 0.00 0.00 0.00 91 1013.1
20260502222705 48 81 7.0 12.0 0.00 0.00 0.00 91 1013.1
20260502222205 49 72 7.0 13.0 0.00 0.00 0.00 91 1013.2
20260502221705 49 78 7.0 13.0 0.00 0.00 0.00 91 1013.1
20260502221205 49 53 8.0 13.0 0.00 0.00 0.00 91 1013.1
20260502220205 49 59 7.0 16.0 0.00 0.00 0.00 90 1013.1
20260502215704 49 80 8.0 18.0 0.00 0.00 0.00 90 1013.2
20260502215206 49 65 11.0 18.0 0.00 0.00 0.00 90 1013.1
20260502214705 49 78 11.0 18.0 0.00 0.00 0.00 90 1013.1
20260502214205 49 67 10.0 15.0 0.00 0.00 0.00 90 1013.2
20260502213705 49 69 9.0 15.0 0.00 0.00 0.00 90 1013.3
20260502213205 49 66 9.0 15.0 0.00 0.00 0.00 90 1013.2
20260502212705 49 51 9.0 15.0 0.00 0.00 0.00 90 1013.2
20260502212206 49 78 9.0 14.0 0.00 0.00 0.00 90 1013.2
20260502211705 49 42 8.0 17.0 0.00 0.00 0.00 89 1013.1
20260502211205 49 56 9.0 17.0 0.00 0.00 0.00 89 1013.2
20260502210705 49 40 10.0 17.0 0.00 0.00 0.00 89 1013.1
20260502210205 49 64 9.0 16.0 0.00 0.00 0.00 89 1013.1
20260502205705 49 76 9.0 15.0 0.00 0.00 0.00 89 1013.2
20260502204705 49 44 8.0 14.0 0.00 0.00 0.00 88 1013.1
20260502204205 49 40 8.0 14.0 0.00 0.00 0.00 88 1013.1
20260502203705 49 43 9.0 14.0 0.00 0.00 0.00 88 1013.1
20260502202705 49 80 9.0 16.0 0.00 0.00 0.00 87 1012.9
20260502202205 49 55 9.0 16.0 0.00 0.00 0.00 87 1013.0
20260502201705 50 56 9.0 16.0 0.00 0.00 0.00 87 1013.1
20260502201205 50 67 9.0 13.0 0.00 0.00 0.00 87 1013.1
20260502200705 50 37 8.0 12.0 0.00 0.00 0.00 86 1013.0